When you browse on this site, cookies collect data to enhance your experience and personalize the content and advertising you see.
Visit our Privacy Policy to learn more. By continuing to use the site, you agree to this use of cookies and data.

Meteo orario Milwaukee

Oggi, 8 Luglio, Mercoledi

Tempo Temperatura Precipitazioni Vento Pressione Umidità
00:00 +26°C° 0 mm 1 m/s 744 mm Hg 78%
01:00 +25°C° 0 mm 1 m/s 743 mm Hg 79%
02:00 +25°C° 0 mm 1 m/s 743 mm Hg 80%
03:00 +25°C° 0 mm 2 m/s 743 mm Hg 81%
04:00 +25°C° 0 mm 1 m/s 743 mm Hg 81%
05:00 +26°C° 0 mm 1 m/s 744 mm Hg 81%
06:00 +26°C° 0 mm 1 m/s 744 mm Hg 81%
07:00 +27°C° 0.1 mm 1 m/s 744 mm Hg 77%
08:00 +29°C° 0.1 mm 2 m/s 744 mm Hg 73%
09:00 +30°C° 0.1 mm 2 m/s 744 mm Hg 69%
10:00 +31°C° 0.1 mm 2 m/s 743 mm Hg 65%
11:00 +33°C° 0.1 mm 3 m/s 743 mm Hg 62%
12:00 +34°C° 0.1 mm 3 m/s 743 mm Hg 58%
13:00 +34°C° 0 mm 3 m/s 743 mm Hg 58%
14:00 +34°C° 0 mm 3 m/s 743 mm Hg 57%
15:00 +34°C° 0 mm 3 m/s 743 mm Hg 57%
16:00 +33°C° 0.1 mm 3 m/s 742 mm Hg 60%
17:00 +33°C° 0.1 mm 3 m/s 742 mm Hg 64%
18:00 +31°C° 0.1 mm 2 m/s 742 mm Hg 68%
19:00 +30°C° 0 mm 3 m/s 742 mm Hg 70%
20:00 +29°C° 0 mm 3 m/s 742 mm Hg 73%
21:00 +27°C° 0 mm 3 m/s 742 mm Hg 75%
22:00 +27°C° 0 mm 2 m/s 742 mm Hg 77%
23:00 +26°C° 0 mm 2 m/s 742 mm Hg 79%

Domani, 9 Luglio, Giovedi

Tempo Temperatura Precipitazioni Vento Pressione Umidità
00:00 +26°C° 0 mm 2 m/s 742 mm Hg 80%
01:00 +26°C° 0.6 mm 1 m/s 742 mm Hg 82%
02:00 +25°C° 0.6 mm 1 m/s 741 mm Hg 84%
03:00 +25°C° 0.6 mm 1 m/s 741 mm Hg 86%
04:00 +25°C° 0.1 mm 1 m/s 741 mm Hg 85%
05:00 +26°C° 0.1 mm 1 m/s 741 mm Hg 84%
06:00 +26°C° 0.1 mm 1 m/s 742 mm Hg 83%
07:00 +28°C° 0.1 mm 1 m/s 741 mm Hg 79%
08:00 +29°C° 0.1 mm 2 m/s 741 mm Hg 75%
09:00 +31°C° 0.1 mm 2 m/s 741 mm Hg 71%
10:00 +31°C° 0.3 mm 3 m/s 741 mm Hg 68%
11:00 +33°C° 0.3 mm 3 m/s 741 mm Hg 66%
12:00 +33°C° 0.3 mm 4 m/s 741 mm Hg 63%
13:00 +33°C° 0.6 mm 4 m/s 741 mm Hg 65%
14:00 +32°C° 0.6 mm 4 m/s 740 mm Hg 67%
15:00 +30°C° 0.6 mm 4 m/s 740 mm Hg 68%
16:00 +29°C° 0 mm 3 m/s 740 mm Hg 69%
17:00 +28°C° 0 mm 3 m/s 740 mm Hg 70%
18:00 +27°C° 0 mm 2 m/s 740 mm Hg 71%
19:00 +27°C° 0 mm 2 m/s 740 mm Hg 72%
20:00 +27°C° 0 mm 2 m/s 740 mm Hg 72%
21:00 +26°C° 0 mm 2 m/s 740 mm Hg 73%
22:00 +26°C° 0 mm 2 m/s 740 mm Hg 77%
23:00 +26°C° 0 mm 3 m/s 740 mm Hg 81%

Dopodomani, 10 Luglio, Venerdi

Tempo Temperatura Precipitazioni Vento Pressione Umidità
00:00 +25°C° 0 mm 3 m/s 740 mm Hg 85%
01:00 +25°C° 0.1 mm 3 m/s 740 mm Hg 86%
02:00 +25°C° 0.1 mm 3 m/s 740 mm Hg 87%
03:00 +25°C° 0.1 mm 3 m/s 740 mm Hg 88%
04:00 +25°C° 0 mm 3 m/s 740 mm Hg 88%
05:00 +25°C° 0 mm 3 m/s 740 mm Hg 87%
06:00 +23°C° 0 mm 4 m/s 741 mm Hg 86%
07:00 +26°C° 0 mm 4 m/s 741 mm Hg 81%
08:00 +27°C° 0 mm 4 m/s 741 mm Hg 75%
09:00 +28°C° 0 mm 4 m/s 742 mm Hg 69%
10:00 +28°C° 0 mm 5 m/s 742 mm Hg 67%
11:00 +28°C° 0 mm 5 m/s 742 mm Hg 65%
12:00 +29°C° 0 mm 6 m/s 742 mm Hg 63%
13:00 +29°C° 0 mm 6 m/s 742 mm Hg 63%
14:00 +29°C° 0 mm 6 m/s 742 mm Hg 63%
15:00 +29°C° 0 mm 6 m/s 742 mm Hg 63%
16:00 +29°C° 0 mm 5 m/s 742 mm Hg 67%
17:00 +28°C° 0 mm 5 m/s 742 mm Hg 70%
18:00 +28°C° 0 mm 4 m/s 742 mm Hg 73%
19:00 +27°C° 0 mm 4 m/s 742 mm Hg 76%
20:00 +26°C° 0 mm 4 m/s 742 mm Hg 79%
21:00 +23°C° 0 mm 4 m/s 742 mm Hg 82%
22:00 +23°C° 0 mm 4 m/s 742 mm Hg 83%
23:00 +22°C° 0 mm 5 m/s 742 mm Hg 84%

11 Luglio, Sabato

Tempo Temperatura Precipitazioni Vento Pressione Umidità
00:00 +22°C° 0 mm 5 m/s 742 mm Hg 85%
01:00 +22°C° 0 mm 4 m/s 742 mm Hg 86%
02:00 +21°C° 0 mm 4 m/s 742 mm Hg 87%
03:00 +21°C° 0 mm 4 m/s 742 mm Hg 88%
04:00 +21°C° 0 mm 4 m/s 742 mm Hg 88%
05:00 +21°C° 0 mm 4 m/s 742 mm Hg 87%
06:00 +21°C° 0 mm 4 m/s 743 mm Hg 87%
07:00 +23°C° 0 mm 4 m/s 743 mm Hg 82%
08:00 +25°C° 0 mm 3 m/s 743 mm Hg 77%
09:00 +27°C° 0 mm 3 m/s 743 mm Hg 72%
10:00 +28°C° 0.1 mm 3 m/s 743 mm Hg 68%
11:00 +29°C° 0.1 mm 3 m/s 743 mm Hg 64%
12:00 +30°C° 0.1 mm 3 m/s 743 mm Hg 60%
13:00 +30°C° 0.1 mm 3 m/s 742 mm Hg 62%
14:00 +29°C° 0.1 mm 3 m/s 742 mm Hg 64%
15:00 +29°C° 0.1 mm 3 m/s 741 mm Hg 66%
16:00 +28°C° 0.6 mm 3 m/s 741 mm Hg 70%
17:00 +27°C° 0.6 mm 3 m/s 741 mm Hg 74%
18:00 +25°C° 0.6 mm 3 m/s 741 mm Hg 78%
19:00 +25°C° 0 mm 2 m/s 742 mm Hg 79%
20:00 +24°C° 0 mm 2 m/s 742 mm Hg 79%
21:00 +23°C° 0 mm 2 m/s 742 mm Hg 80%
22:00 +23°C° 0 mm 2 m/s 742 mm Hg 80%
23:00 +22°C° 0 mm 3 m/s 742 mm Hg 79%

12 Luglio, Domenica

Tempo Temperatura Precipitazioni Vento Pressione Umidità
00:00 +21°C° 0 mm 3 m/s 742 mm Hg 79%
01:00 +21°C° 0 mm 3 m/s 742 mm Hg 81%
02:00 +21°C° 0 mm 4 m/s 742 mm Hg 84%
03:00 +20°C° 0 mm 4 m/s 742 mm Hg 86%
04:00 +20°C° 0 mm 5 m/s 743 mm Hg 86%
05:00 +20°C° 0 mm 5 m/s 743 mm Hg 85%
06:00 +20°C° 0 mm 5 m/s 743 mm Hg 84%
07:00 +21°C° 0 mm 5 m/s 743 mm Hg 81%
08:00 +22°C° 0 mm 5 m/s 743 mm Hg 77%
09:00 +23°C° 0 mm 5 m/s 744 mm Hg 73%
10:00 +23°C° 0 mm 5 m/s 744 mm Hg 71%
11:00 +25°C° 0 mm 5 m/s 744 mm Hg 69%
12:00 +24°C° 0 mm 6 m/s 743 mm Hg 67%
13:00 +24°C° 0 mm 6 m/s 743 mm Hg 67%
14:00 +26°C° 0 mm 6 m/s 743 mm Hg 67%
15:00 +26°C° 0 mm 7 m/s 743 mm Hg 67%
16:00 +24°C° 0 mm 7 m/s 743 mm Hg 67%
17:00 +23°C° 0 mm 6 m/s 743 mm Hg 68%
18:00 +23°C° 0 mm 6 m/s 743 mm Hg 68%
19:00 +22°C° 0 mm 6 m/s 744 mm Hg 68%
20:00 +21°C° 0 mm 6 m/s 744 mm Hg 68%
21:00 +20°C° 0 mm 6 m/s 745 mm Hg 69%
22:00 +20°C° 0 mm 6 m/s 745 mm Hg 70%
23:00 +20°C° 0 mm 5 m/s 745 mm Hg 71%

13 Luglio, Lunedi

Tempo Temperatura Precipitazioni Vento Pressione Umidità
00:00 +19°C° 0 mm 5 m/s 745 mm Hg 72%
01:00 +19°C° 0 mm 5 m/s 745 mm Hg 75%
02:00 +19°C° 0 mm 4 m/s 745 mm Hg 77%
03:00 +18°C° 0 mm 4 m/s 745 mm Hg 80%
04:00 +18°C° 0 mm 4 m/s 745 mm Hg 81%
05:00 +19°C° 0 mm 4 m/s 746 mm Hg 81%
06:00 +19°C° 0 mm 3 m/s 746 mm Hg 82%
07:00 +21°C° 0 mm 3 m/s 746 mm Hg 76%
08:00 +22°C° 0 mm 3 m/s 747 mm Hg 71%
09:00 +25°C° 0 mm 3 m/s 747 mm Hg 65%
10:00 +25°C° 0 mm 3 m/s 747 mm Hg 62%
11:00 +26°C° 0 mm 3 m/s 747 mm Hg 58%
12:00 +27°C° 0 mm 4 m/s 747 mm Hg 55%
13:00 +27°C° 0 mm 3 m/s 746 mm Hg 54%
14:00 +26°C° 0 mm 3 m/s 746 mm Hg 54%
15:00 +26°C° 0 mm 3 m/s 746 mm Hg 54%
16:00 +26°C° 0 mm 3 m/s 746 mm Hg 55%
17:00 +25°C° 0 mm 3 m/s 746 mm Hg 57%
18:00 +24°C° 0 mm 3 m/s 745 mm Hg 58%
19:00 +23°C° 0 mm 2 m/s 746 mm Hg 61%
20:00 +21°C° 0 mm 2 m/s 746 mm Hg 63%
21:00 +19°C° 0 mm 2 m/s 746 mm Hg 65%
22:00 +19°C° 0 mm 2 m/s 746 mm Hg 68%
23:00 +19°C° 0 mm 2 m/s 746 mm Hg 70%
Mostrare altro